KE8BSM Weather Reports


time (UTC)temp
F
wind
direction
speed
knots
gust
knots
rain 1hr
in
rain 24hr
in
rain mn
in
humidity
%
barometer
mb
20260510171816 55 242 1.7 4.3 0.00 0.00 0.00 39 1018.9
20260510170856 54 134 2.6 3.5 0.00 0.00 0.00 40 1018.8
20260510165816 55 268 2.6 4.3 0.00 0.00 0.00 40 1018.9
20260510164816 54 3 4.3 7.0 0.00 0.01 0.00 41 1018.8
20260510163817 54 275 2.6 4.3 0.00 0.01 0.00 40 1018.8
20260510162816 54 141 1.7 3.5 0.00 0.01 0.00 38 1018.7
20260510161817 53 12 5.2 7.0 0.00 0.01 0.00 42 1018.7
20260510160837 54 185 2.6 4.3 0.00 0.01 0.00 38 1018.6
20260510155817 53 21 4.3 6.1 0.00 0.01 0.00 41 1018.6
20260510154817 53 14 3.5 6.1 0.00 0.01 0.00 40 1018.5
20260510153816 53 308 1.7 3.5 0.00 0.01 0.00 42 1018.5
20260510152817 52 61 0.9 1.7 0.00 0.01 0.00 41 1018.4
20260510151817 52 80 0.9 2.6 0.00 0.01 0.00 41 1018.4
20260510150818 52 12 3.5 7.0 0.00 0.01 0.00 42 1018.4
20260510145826 51 6 3.5 4.3 0.00 0.01 0.00 43 1018.3
20260510144826 51 5 2.6 5.2 0.00 0.01 0.00 41 1018.2
20260510143818 51 11 2.6 3.5 0.00 0.01 0.00 41 1018.1
20260510142818 50 8 3.5 5.2 0.00 0.01 0.00 44 1018.0
20260510141827 50 349 1.7 2.6 0.00 0.01 0.00 44 1017.9
20260510140827 50 345 4.3 5.2 0.00 0.01 0.00 46 1017.9
20260510135818 50 331 3.5 6.1 0.00 0.01 0.00 44 1018.0
20260510134827 49 207 0.0 0.0 0.00 0.01 0.00 48 1018.0
20260510133847 49 16 3.5 3.5 0.00 0.01 0.00 46 1017.9
20260510132827 49 338 0.0 1.7 0.00 0.01 0.00 47 1017.8
20260510131818 48 37 0.9 2.6 0.00 0.01 0.00 48 1017.7
20260510130827 48 83 0.0 0.9 0.00 0.01 0.00 55 1017.7
20260510125827 47 354 0.9 1.7 0.00 0.01 0.00 57 1017.8
20260510124848 47 299 0.9 1.7 0.00 0.01 0.00 61 1017.5
20260510123828 46 227 1.7 1.7 0.00 0.01 0.00 62 1017.4
20260510122828 45 225 0.9 1.7 0.00 0.01 0.00 65 1017.3
20260510121828 44 213 1.7 2.6 0.00 0.01 0.00 69 1017.2
20260510120828 43 16 0.0 0.9 0.00 0.01 0.00 78 1017.1
20260510115848 42 331 0.0 0.0 0.00 0.01 0.00 79 1017.0
20260510114828 41 340 0.0 0.9 0.00 0.01 0.00 82 1016.9
20260510113828 39 0.0 0.0 0.00 0.01 0.00 84 1016.7
20260510112829 38 334 0.9 0.9 0.00 0.01 0.00 84 1016.6
20260510111829 38 334 0.0 0.0 0.00 0.01 0.00 87 1016.4
20260510110829 38 313 0.0 0.9 0.00 0.01 0.00 88 1016.4
20260510105830 38 306 0.0 0.9 0.00 0.01 0.00 85 1016.3
20260510104909 37 0.0 0.0 0.00 0.01 0.00 83 1016.2
20260510103829 37 0.0 0.0 0.00 0.01 0.00 83 1016.1
20260510102829 37 0.0 0.0 0.00 0.01 0.00 84 1016.0
20260510101830 37 0.0 0.0 0.00 0.01 0.00 84 1015.8
20260510100831 37 273 0.0 0.9 0.00 0.01 0.00 83 1015.5
20260510095830 38 0.0 0.0 0.00 0.01 0.00 82 1015.3
20260510094815 38 0.0 0.0 0.00 0.01 0.00 80 1015.3
20260510093815 38 0.0 0.0 0.00 0.01 0.00 83 1015.2
20260510092815 39 0.0 0.0 0.00 0.01 0.00 80 1015.1
20260510091816 39 310 0.0 0.0 0.00 0.01 0.00 82 1015.0
20260510090816 40 331 0.9 0.9 0.00 0.01 0.00 81 1014.7
20260510085816 40 334 0.0 0.9 0.00 0.01 0.00 80 1014.6
20260510084817 40 340 0.0 1.7 0.00 0.01 0.00 78 1014.5
20260510083817 41 0.0 0.0 0.00 0.01 0.00 78 1014.4
20260510082817 41 343 0.9 1.7 0.00 0.01 0.00 78 1014.3
20260510081837 41 0.0 0.0 0.00 0.01 0.00 73 1014.1
20260510080817 41 283 0.0 0.0 0.00 0.01 0.00 76 1013.9
20260510075817 41 0.0 0.0 0.00 0.01 0.00 72 1013.7
20260510074818 42 295 0.0 0.9 0.00 0.01 0.00 75 1013.5
20260510073817 42 0.0 0.0 0.00 0.01 0.00 70 1013.5
20260510072817 43 0.0 0.0 0.00 0.01 0.00 68 1013.3
20260510071838 44 0.0 0.0 0.00 0.01 0.00 66 1013.2
20260510070818 44 0.0 0.0 0.00 0.01 0.00 64 1013.1
20260510065835 45 0.0 0.0 0.00 0.01 0.00 62 1013.0
20260510064815 45 0.0 0.0 0.00 0.01 0.00 62 1013.0
20260510063835 45 0.0 0.0 0.00 0.01 0.00 60 1012.9
20260510062815 46 0.0 0.0 0.00 0.01 0.00 60 1013.0
20260510061816 46 0.0 0.0 0.00 0.01 0.00 58 1013.1
20260510060836 46 307 0.0 0.0 0.00 0.01 0.00 62 1013.1
20260510055816 47 8 3.5 5.2 0.00 0.01 0.00 59 1012.8
20260510054816 47 127 0.0 1.7 0.00 0.01 0.00 59 1012.7
20260510053837 47 355 4.3 6.1 0.00 0.01 0.00 64 1012.6
20260510052816 48 0.0 0.0 0.00 0.01 0.00 65 1012.3
20260510051817 48 341 2.6 4.3 0.00 0.01 0.00 65 1012.0
20260510050837 48 8 0.0 1.7 0.00 0.01 0.00 66 1011.7
20260510045818 49 14 1.7 2.6 0.00 0.01 0.00 66 1011.4
20260510044817 49 54 0.9 1.7 0.00 0.01 0.00 67 1011.1
20260510043838 49 360 1.7 3.5 0.00 0.01 0.00 65 1010.8
20260510042838 50 15 0.0 1.7 0.00 0.01 0.00 63 1010.6
20260510041818 50 332 0.9 3.5 0.00 0.01 0.00 65 1010.4
20260510040815 51 353 1.7 2.6 0.00 0.01 0.00 63 1010.2
20260510035815 51 340 2.6 3.5 0.00 0.01 0.01 63 1009.9
20260510034816 52 49 2.6 4.3 0.00 0.01 0.01 62 1009.7
20260510033816 52 359 3.5 5.2 0.00 0.01 0.01 62 1009.6
20260510032816 53 347 2.6 3.5 0.00 0.01 0.01 60 1009.4
20260510031816 53 4 1.7 2.6 0.00 0.01 0.01 58 1009.3
20260510030836 54 39 0.9 2.6 0.00 0.01 0.01 57 1009.2
20260510025816 54 13 1.7 2.6 0.00 0.01 0.01 58 1009.0
20260510024817 54 12 2.6 3.5 0.00 0.01 0.01 58 1008.8
20260510023816 54 0.0 0.0 0.00 0.01 0.01 58 1008.7
20260510022816 55 34 0.0 0.9 0.00 0.01 0.01 54 1008.4
20260510021839 55 348 0.9 3.5 0.00 0.01 0.01 55 1008.3
20260510020817 55 348 0.0 1.7 0.00 0.01 0.01 54 1008.1
20260510015817 55 34 1.7 2.6 0.00 0.01 0.01 52 1008.0
20260510014837 56 288 0.0 0.9 0.00 0.01 0.01 56 1007.9
20260510013817 56 352 0.0 1.7 0.00 0.01 0.01 52 1007.7
20260510012837 56 313 0.9 2.6 0.00 0.01 0.01 54 1007.5
20260510011818 57 358 2.6 4.3 0.00 0.01 0.01 52 1007.3
20260510010835 57 35 0.9 1.7 0.00 0.01 0.01 53 1007.1
20260510005815 58 346 1.7 3.5 0.00 0.01 0.01 52 1007.1
20260510004815 58 357 1.7 2.6 0.00 0.01 0.01 50 1007.0
20260510003818 59 327 1.7 2.6 0.00 0.01 0.01 50 1006.9
20260510002815 59 304 1.7 3.5 0.00 0.01 0.01 50 1006.7
20260510001815 59 354 3.5 6.1 0.00 0.01 0.01 49 1006.5
20260510000816 60 25 4.3 6.1 0.00 0.01 0.01 50 1006.3
20260509235816 60 10 2.6 5.2 0.00 0.01 0.01 48 1006.2
20260509234816 60 15 3.5 7.0 0.00 0.01 0.01 47 1006.0
20260509233817 61 39 4.3 6.1 0.00 0.01 0.01 47 1005.7
20260509232817 61 351 4.3 7.8 0.00 0.01 0.01 47 1005.7
20260509231857 62 359 2.6 6.1 0.00 0.01 0.01 46 1005.6
20260509230817 63 8 4.3 9.6 0.00 0.01 0.01 41 1005.3
20260509225837 63 357 1.7 3.5 0.00 0.01 0.01 37 1005.1
20260509224817 63 47 4.3 6.1 0.00 0.01 0.01 36 1005.0
20260509223817 64 35 4.3 7.0 0.00 0.01 0.01 44 1004.9
20260509222838 65 53 3.5 7.0 0.00 0.01 0.01 46 1004.6
20260509221817 65 36 5.2 7.8 0.00 0.01 0.01 45 1004.2
20260509220838 66 16 2.6 7.8 0.00 0.01 0.01 47 1003.9
20260509215815 65 36 2.6 6.1 0.00 0.01 0.01 51 1003.8
20260509214815 65 346 4.3 5.2 0.00 0.01 0.01 53 1003.7
20260509213838 64 267 0.9 2.6 0.00 0.01 0.01 54 1003.6
20260509212816 64 196 2.6 5.2 0.00 0.01 0.01 53 1003.4
20260509211836 64 221 0.9 2.6 0.00 0.01 0.01 54 1003.4
20260509210816 64 292 2.6 5.2 0.00 0.01 0.01 53 1003.3
20260509205836 64 232 0.9 2.6 0.00 0.01 0.01 52 1003.3
20260509204816 64 242 1.7 3.5 0.00 0.01 0.01 49 1003.3
20260509203816 64 238 2.6 6.1 0.00 0.01 0.01 53 1003.2
20260509202817 64 216 5.2 7.8 0.00 0.01 0.01 51 1003.3
20260509201816 64 225 1.7 6.1 0.00 0.01 0.01 53 1003.5
20260509200817 64 150 1.7 2.6 0.00 0.01 0.01 51 1003.4
20260509195817 63 293 1.7 3.5 0.00 0.01 0.01 51 1003.4
20260509194817 62 156 4.3 7.0 0.00 0.01 0.01 52 1003.3
20260509193817 62 215 3.5 5.2 0.00 0.01 0.01 55 1003.5
20260509192817 61 139 2.6 6.1 0.00 0.01 0.01 56 1003.5
20260509191817 61 186 3.5 6.1 0.00 0.01 0.01 59 1003.5
20260509190818 61 209 3.5 5.2 0.00 0.01 0.01 59 1003.4
20260509185818 60 177 3.5 7.0 0.00 0.01 0.01 59 1003.4
20260509184815 60 222 3.5 5.2 0.00 0.01 0.01 61 1003.6
20260509183835 58 205 1.7 3.5 0.00 0.01 0.01 65 1003.6
20260509182818 57 236 3.5 5.2 0.00 0.01 0.01 67 1003.5
20260509181819 57 169 3.5 5.2 0.00 0.01 0.01 71 1003.5
20260509180818 56 179 1.7 5.2 0.00 0.01 0.01 73 1003.8
20260509175815 57 183 1.7 2.6 0.00 0.01 0.01 70 1003.7
20260509174858 57 226 0.9 1.7 0.01 0.01 0.01 69 1003.7
20260509173816 56 165 1.7 1.7 0.01 0.01 0.01 72 1003.4
20260509172816 56 140 1.7 1.7 0.01 0.01 0.01 75 1003.1